Change the Weather History Date:

Thursday, January 10, 2013

  Actual Average Record
Temperature  
Mean Temperature 56 °F -  
Max Temperature 63 °F 44 °F 74 °F (1990)
Min Temperature 48 °F 24 °F -14 °F (1977)
Degree Days  
Heating Degree Days 10    
Growing Degree Days 6 (Base 50)    
Moisture  
Dew Point 51 °F    
Average Humidity 87    
Maximum Humidity 97    
Minimum Humidity 63    
Precipitation  
Precipitation 0.04 in - - ()
Sea Level Pressure  
Sea Level Pressure 29.94 in    
Wind  
Wind Speed 8 mph (SE)    
Max Wind Speed 15 mph    
Max Gust Speed 18 mph    
Visibility 7 miles    
Events Rain    
Averages and records for this station are not official NWS values.
T = Trace of Precipitation, MM = Missing Value Source: NWS Daily Summary

Daily Weather History Graph

Daily Weather History Graph

Search for Another Location

Airport or City:

Trip Planner

Search our weather history database for the weather conditions in past years. The results will help you decide how hot, cold, wet, or windy it might be!

Date:

Astronomy

Jan. 10, 2013 Rise Set
Actual Time 7:31 AM CST 5:30 PM CST
Civil Twilight 7:03 AM CST 5:58 PM CST
Nautical Twilight 6:32 AM CST 6:29 PM CST
Astronomical Twilight 6:01 AM CST 7:00 PM CST
Moon 6:12 AM CST (1/10) 4:39 PM CST (1/10)
Length of Visible Light 10h 54m
Length of Day
9h 59m
Waning Crescent, 2% of the Moon is Illuminated
Jan 10
Waning Crescent
Jan 11
New
Jan 18
First Quarter
Jan 26
Full
Feb 3
Last Quarter

Hourly Weather History & Observations

Time (CST) Temp. Dew Point Humidity Pressure Visibility Wind Dir Wind Speed Gust Speed Precip Events Conditions
12:53 AM 52.0 °F 50.0 °F 93% 30.10 in 10.0 mi East 10.4 mph - N/A   Overcast
1:53 AM 52.0 °F 50.0 °F 93% 30.05 in 10.0 mi East 11.5 mph 17.3 mph N/A   Overcast
2:19 AM 51.8 °F 50.0 °F 94% 30.06 in 6.0 mi East 8.1 mph - N/A   Overcast
2:53 AM 52.0 °F 50.0 °F 93% 30.05 in 3.0 mi East 5.8 mph - N/A   Overcast
3:08 AM 51.8 °F 50.0 °F 94% 30.05 in 2.5 mi East 6.9 mph - 0.00 in Rain Light Rain
3:39 AM 51.8 °F 50.0 °F 94% 30.01 in 3.0 mi ENE 6.9 mph - 0.01 in Rain Light Rain
3:53 AM 52.0 °F 50.0 °F 93% 30.00 in 4.0 mi East 8.1 mph - 0.01 in   Overcast
4:08 AM 51.8 °F 50.0 °F 94% 29.99 in 2.5 mi East 9.2 mph - N/A   Overcast
4:18 AM 51.8 °F 50.0 °F 94% 29.99 in 5.0 mi East 6.9 mph - N/A   Overcast
4:53 AM 52.0 °F 50.0 °F 93% 29.98 in 2.0 mi East 9.2 mph - N/A   Overcast
5:33 AM 51.8 °F 50.0 °F 94% 29.96 in 3.0 mi East 6.9 mph - N/A   Overcast
5:41 AM 51.8 °F 50.0 °F 94% 29.96 in 2.5 mi East 6.9 mph - 0.00 in Rain Light Rain
5:51 AM 51.8 °F 50.0 °F 94% 29.95 in 3.0 mi East 6.9 mph - 0.00 in   Overcast
5:53 AM 52.0 °F 50.0 °F 93% 29.95 in 3.0 mi East 6.9 mph - 0.00 in   Overcast
6:18 AM 51.8 °F 50.0 °F 94% 29.96 in 2.5 mi East 4.6 mph - N/A   Overcast
6:25 AM 51.8 °F 50.0 °F 94% 29.96 in 4.0 mi East 5.8 mph - N/A   Overcast
6:39 AM 51.8 °F 50.0 °F 94% 29.96 in 2.5 mi East 4.6 mph - N/A   Overcast
6:53 AM 52.0 °F 50.0 °F 93% 29.95 in 5.0 mi East 5.8 mph - N/A   Overcast
7:53 AM 53.1 °F 51.1 °F 93% 29.94 in 8.0 mi Calm Calm - 0.01 in   Overcast
8:15 AM 53.6 °F 51.8 °F 94% 29.95 in 2.0 mi East 3.5 mph - 0.00 in Rain Light Rain
8:53 AM 53.1 °F 52.0 °F 96% 29.95 in 3.0 mi ENE 3.5 mph - 0.00 in   Overcast
9:17 AM 55.4 °F 53.6 °F 94% 29.93 in 4.0 mi ESE 4.6 mph - N/A   Overcast
9:25 AM 55.4 °F 53.6 °F 94% 29.94 in 2.5 mi SE 4.6 mph - 0.01 in Rain Light Rain
9:37 AM 55.4 °F 53.6 °F 94% 29.94 in 3.0 mi SE 4.6 mph - 0.01 in Rain Light Rain
9:46 AM 55.4 °F 53.6 °F 94% 29.94 in 5.0 mi Variable 3.5 mph - N/A   Overcast
9:53 AM 55.9 °F 55.0 °F 97% 29.93 in 6.0 mi Calm Calm - 0.01 in   Overcast
10:06 AM 57.2 °F 55.4 °F 94% 29.92 in 10.0 mi ESE 4.6 mph - N/A   Overcast
10:16 AM 57.2 °F 55.4 °F 94% 29.93 in 10.0 mi SE 3.5 mph - N/A   Overcast
10:37 AM 57.2 °F 55.4 °F 94% 29.93 in 5.0 mi Variable 3.5 mph - 0.00 in Rain Light Rain
10:46 AM 59.0 °F 55.4 °F 88% 29.93 in 8.0 mi South 5.8 mph - 0.00 in Rain Light Rain
10:53 AM 59.0 °F 55.9 °F 90% 29.92 in 10.0 mi South 6.9 mph - 0.00 in Rain Light Rain
11:28 AM 60.8 °F 55.4 °F 82% 29.90 in 10.0 mi South 9.2 mph 17.3 mph 0.00 in   Mostly Cloudy
11:48 AM 60.8 °F 55.4 °F 82% 29.90 in 10.0 mi South 9.2 mph - 0.00 in   Scattered Clouds
11:53 AM 61.0 °F 55.0 °F 81% 29.88 in 10.0 mi South 6.9 mph - 0.00 in   Scattered Clouds
12:34 PM 62.6 °F 53.6 °F 72% 29.87 in 10.0 mi SSW 10.4 mph 18.4 mph N/A   Overcast
12:53 PM 61.0 °F 53.1 °F 75% 29.85 in 10.0 mi SSW 5.8 mph - N/A   Overcast
1:09 PM 62.6 °F 53.6 °F 72% 29.84 in 10.0 mi SSW 8.1 mph - N/A   Overcast
1:53 PM 63.0 °F 50.0 °F 63% 29.83 in 10.0 mi SSW 11.5 mph - N/A   Overcast
2:53 PM 60.1 °F 48.0 °F 64% 29.83 in 10.0 mi South 8.1 mph 17.3 mph N/A   Overcast
3:53 PM 57.0 °F 48.0 °F 72% 29.86 in 10.0 mi SW 15.0 mph - 0.01 in   Overcast
4:53 PM 55.9 °F 46.0 °F 69% 29.86 in 10.0 mi SSW 12.7 mph 18.4 mph N/A   Scattered Clouds
5:53 PM 55.0 °F 45.0 °F 69% 29.88 in 10.0 mi SW 11.5 mph - N/A   Overcast
6:53 PM 54.0 °F 45.0 °F 72% 29.88 in 10.0 mi SSW 10.4 mph - N/A   Mostly Cloudy
7:53 PM 51.1 °F 45.0 °F 80% 29.90 in 10.0 mi SSW 8.1 mph - N/A   Partly Cloudy
8:53 PM 50.0 °F 44.1 °F 80% 29.90 in 10.0 mi SSW 10.4 mph - N/A   Partly Cloudy
9:53 PM 50.0 °F 44.1 °F 80% 29.89 in 10.0 mi SSW 8.1 mph - N/A   Clear
10:53 PM 48.2 °F 44.6 °F 87% 29.90 in 10.0 mi South 9.2 mph - N/A   Clear
11:53 PM 48.0 °F 43.0 °F 83% 29.91 in 10.0 mi SSW 11.5 mph - N/A   Partly Cloudy